Regional Weather Roundup
Issued by NWS

Home | Current Version | Previous Version | Text Only | Print | Product List | Glossary On
Versions: 1 2 3 4 5 6 7 8 9 10 11 12 13 14 15 16 17 18 19 20 21 22 23 24 25 26 27 28 29 30 31 32 33 34 35 36 37 38 39 40 41 42 43 44 45 46 47 48 49 50
000
ASCA42 TJSJ 301210
RWRPR
PUERTO RICO/U.S. VIRGIN ISLANDS HOURLY WEATHER ROUNDUP
NATIONAL WEATHER SERVICE SAN JUAN PR
800 AM AST SAT MAY 30 2015

PRZ001-004-301300-
PUERTO RICO

CITY           SKY/WX    TMP DP  RH WIND       PRES   REMARKS
SAN JUAN LMM   MOSUNNY   82  75  78 CALM      29.99R
AGUADILLA      PTSUNNY   79  72  78 E3        30.01R
CEIBA          SUNNY     81  73  78 CALM      30.01S
$$

PRZ006-007-301300-
U.S. VIRGIN ISLANDS

CITY           SKY/WX    TMP DP  RH WIND       PRES   REMARKS
CHARLOTTE AMA  SUNNY     82  75  78 E8        29.98S
CHRISTIANSTED  MOSUNNY   82  75  78 SE10      30.00R
$$

HOURLY WEATHER ROUNDUP FOR THE NEWS MEDIA

CITY           SKY/WX    TMP DP  RH WIND       PRES   REMARKS
ORLANDO        PTSUNNY   77  70  79 N6        30.09R
NEW YORK       PTSUNNY   68  63  83 S8        30.23  VSB 3/4
NEWARK         MOSUNNY   72  65  78 SW6       30.21S
CHICAGO        LGT RAIN  68  65  90 W5        29.97R FOG
HARTFORD       MOSUNNY   65  62  90 SW8       30.23S
BOSTON         MOSUNNY   63  59  87 S10       30.20F
DALLAS         TSTM      67  65  93 N14G30    30.05R FOG
PHILADELPHIA   CLOUDY    71  66  84 S9        30.21S
LOS ANGELES    CLOUDY    59  57  94 CALM      29.92S FOG
WASHINGTON DC  PTSUNNY   71  67  87 S7        30.19S


USA.gov is the U.S. government's official web portal to all federal, state and local government web resources and services.